Regional Weather Roundup
Issued by NWS Newport/Morehead, NC

Current Version | Previous Version | Text Only | Print | Product List | Glossary Off
Versions: 1 2 3 4 5 6 7 8 9 10 11 12 13 14 15 16 17 18 19 20 21 22 23 24 25 26 27 28 29 30 31 32 33 34 35 36 37 38 39 40 41 42 43 44 45 46 47 48 49 50
000 ASUS42 KMHX 262010 RWRMHX WEATHER ROUNDUP FOR EASTERN NORTH CAROLINA NATIONAL WEATHER SERVICE NEWPORT/MOREHEAD CITY NC 300 PM EST MON JAN 26 2015 NOTE: "FAIR" INDICATES FEW OR NO CLOUDS BELOW 12,000 FEET WITH NO SIGNIFICANT WEATHER AND/OR OBSTRUCTIONS TO VISIBILITY NCZ015>017-031-032-045>047-102-103-262100- NORTH COAST CITY SKY/WX TMP DP RH WIND PRES REMARKS EDENTON CLOUDY 52 46 79 N5 29.53S ELIZABETH CITY CLOUDY 51 44 77 NW7 29.53F KITTY HAWK CLOUDY 47 45 93 N5 29.50R MANTEO CLOUDY 48 45 87 N6 29.51R $$ NCZ045>047-081-094-103-104-262100- CENTRAL COAST CITY SKY/WX TMP DP RH WIND PRES REMARKS FRISCO CLOUDY 50 45 83 NW6 29.50S SWANQUARTER NOT AVBL $$ NCZ095-097-098-100-101-262100- SOUTHERN COAST CITY SKY/WX TMP DP RH WIND PRES REMARKS BEAUFORT CLOUDY 52 46 80 NW7 29.52F CEDAR ISLAND NOT AVBL JACKSONVILLE PTSUNNY 56 42 59 NW10 29.53F PINEY ISLAND N/A N/A N/A N/A MISG 29.51F WILMINGTON MOSUNNY 58 42 55 NW12 29.54F $$ NCZ011>013-027>030-043-044-078>080-089-090>093-098-262100- COASTAL PLAIN CITY SKY/WX TMP DP RH WIND PRES REMARKS AHOSKIE CLOUDY 51 39 63 N7 29.56R CLINTON CLOUDY 50 44 79 NW8 29.59R ELIZABETHTOWN CLOUDY 53 41 64 NW5 29.58R GOLDSBORO MOSUNNY 54 49 85 NW8 29.54F GREENVILLE CLOUDY 54 41 62 NW3 29.58S HAVELOCK PTSUNNY 53 39 59 VRB5 29.54S KENANSVILLE MOSUNNY 53 40 61 W7 29.56F KINSTON MOSUNNY 55 41 58 W6 29.54F NEW BERN CLOUDY 54 41 61 VRB3 29.55S RICHLANDS SUNNY 55 39 54 W5 29.54F ROCKY MOUNT CLOUDY 53 40 61 NW9 29.56S WASHINGTON CLOUDY 49 43 77 NW5 29.54S WHITEVILLE CLOUDY 55 40 59 CALM 29.56S $$ AMZ130-135-150-152-154-156-158-170-250-252-270-ANZ085-086-088-633-658-670-262100- MARINE OBSERVATIONS STATION/POSITION TIME TEMP WIND PRES WAVE SWELL AIR SEA DIR/SP/G HT/PER HT/PER (UTC) (F) (DEG/KT/KT) (MB) (FT/S) (FT/S) CHESAPEAKE LIGHT 1900 45 350/ 18/ 19 1000.6 64 E VA BEACH 2000 55 52 70/ 8/ 10 997.5 4/ 5 3/ 5 DUCK 2000 45 44 350/ 14/ 16 998.3 2 E DUCK 2000 44 N/A 2/ 9 10 NE DUCK 2000 45 N/A 3/ 8 2/13 OREGON INLET 2000 50 47 340/ 6/ 9 999.0 13E OREGON INLT 2000 47 N/A 3/ 8 HATTERAS CG 2000 49 53 310/ 10/ 10 999.5 DIAMOND BUOY 2000 58 71 360/ 6/ 8 998.7 3/ 7 3/ 7 17 S OCRACOKE NOT AVBL CAPE LOOKOUT 1900 49 320/ 6/ 7 999.7 BEAUFORT LAB 2000 50 50 340/ 5/ 6 998.7 27 SE WRIGHTSVLE NOT AVBL 5 SE WRIGHTSVLE 1900 53 52 260/ 4/ 6 1000.5 225 S CAPE HAT 1854 61 72 250/ 12/ 17 1000.3 11/ 8 10/ 8 41 SE CHARLESTON 2000 57 69 270/ 23/ 31 1002.1 6/ 7 2/10 $$

USA.gov is the U.S. government's official web portal to all federal, state and local government web resources and services.